Time,TemperatureF,DewpointF,PressureIn,WindDirection,WindDirectionDegrees,WindSpeedMPH,WindSpeedGustMPH,Humidity,HourlyPrecipIn,Conditions,Clouds,dailyrainin,SoftwareType,DateUTC
2013-01-13 00:02:00,27.0,17.0,-100.00,SE,136,2.0,2.0,65,-99.99,,,-99.99,,2013-01-13 08:02:00,
2013-01-13 00:11:00,26.0,16.0,-100.00,SE,139,1.0,2.0,65,-99.99,,,-99.99,,2013-01-13 08:11:00,
2013-01-13 00:22:00,27.0,16.0,-100.00,ESE,105,1.0,2.0,64,-99.99,,,-99.99,,2013-01-13 08:22:00,
2013-01-13 00:32:00,27.0,16.0,-100.00,East,101,2.0,3.0,62,-99.99,,,-99.99,,2013-01-13 08:32:00,
2013-01-13 00:42:00,27.0,15.0,-100.00,ESE,114,0.0,1.0,61,-99.99,,,-99.99,,2013-01-13 08:42:00,
2013-01-13 00:52:00,28.0,15.0,-100.00,ENE,72,2.0,5.0,58,-99.99,,,-99.99,,2013-01-13 08:52:00,
2013-01-13 01:02:00,28.0,14.0,-100.00,East,85,1.0,6.0,56,-99.99,,,-99.99,,2013-01-13 09:02:00,
2013-01-13 01:11:00,28.0,13.0,-100.00,ESE,103,2.0,5.0,53,-99.99,,,-99.99,,2013-01-13 09:11:00,
2013-01-13 01:22:00,29.0,13.0,-100.00,NE,40,3.0,7.0,50,-99.99,,,-99.99,,2013-01-13 09:22:00,
2013-01-13 01:32:00,29.0,11.0,-100.00,East,84,3.0,7.0,46,-99.99,,,-99.99,,2013-01-13 09:32:00,
2013-01-13 01:42:00,29.0,9.0,-100.00,NE,56,4.0,7.0,43,-99.99,,,-99.99,,2013-01-13 09:42:00,
2013-01-13 01:52:00,29.0,8.0,-100.00,ENE,68,4.0,8.0,40,-99.99,,,-99.99,,2013-01-13 09:52:00,
2013-01-13 02:02:00,30.0,8.0,-100.00,ENE,61,5.0,9.0,38,-99.99,,,-99.99,,2013-01-13 10:02:00,
2013-01-13 02:11:00,30.0,7.0,-100.00,ENE,63,5.0,8.0,37,-99.99,,,-99.99,,2013-01-13 10:11:00,
2013-01-13 02:22:00,30.0,6.0,-100.00,NE,46,3.0,8.0,36,-99.99,,,-99.99,,2013-01-13 10:22:00,
2013-01-13 02:32:00,30.0,6.0,-100.00,East,100,4.0,8.0,35,-99.99,,,-99.99,,2013-01-13 10:32:00,
2013-01-13 02:42:00,30.0,5.0,-100.00,NE,48,3.0,7.0,34,-99.99,,,-99.99,,2013-01-13 10:42:00,
2013-01-13 02:52:00,30.0,4.0,-100.00,ENE,77,3.0,6.0,33,-99.99,,,-99.99,,2013-01-13 10:52:00,
2013-01-13 03:02:00,30.0,4.0,-100.00,ENE,59,4.0,8.0,33,-99.99,,,-99.99,,2013-01-13 11:02:00,
2013-01-13 03:12:00,30.0,5.0,-100.00,NE,52,4.0,7.0,34,-99.99,,,-99.99,,2013-01-13 11:12:00,
2013-01-13 03:22:00,30.0,5.0,-100.00,NE,46,2.0,5.0,34,-99.99,,,-99.99,,2013-01-13 11:22:00,
2013-01-13 03:32:00,29.0,7.0,-100.00,SSE,157,2.0,5.0,38,-99.99,,,-99.99,,2013-01-13 11:32:00,
2013-01-13 03:42:00,29.0,8.0,-100.00,NW,316,1.0,4.0,40,-99.99,,,-99.99,,2013-01-13 11:42:00,
2013-01-13 03:52:00,28.0,8.0,-100.00,WNW,286,2.0,4.0,43,-99.99,,,-99.99,,2013-01-13 11:52:00,
2013-01-13 04:02:00,28.0,9.0,-100.00,NW,322,1.0,2.0,44,-99.99,,,-99.99,,2013-01-13 12:02:00,
2013-01-13 04:12:00,29.0,10.0,-100.00,WSW,256,1.0,4.0,44,-99.99,,,-99.99,,2013-01-13 12:12:00,
2013-01-13 04:22:00,29.0,10.0,-100.00,ESE,103,1.0,5.0,44,-99.99,,,-99.99,,2013-01-13 12:22:00,
2013-01-13 04:32:00,29.0,10.0,-100.00,NW,304,1.0,5.0,44,-99.99,,,-99.99,,2013-01-13 12:32:00,
2013-01-13 04:42:00,28.0,10.0,-100.00,SW,221,2.0,4.0,46,-99.99,,,-99.99,,2013-01-13 12:42:00,
2013-01-13 04:52:00,28.0,12.0,-100.00,SSW,203,2.0,5.0,50,-99.99,,,-99.99,,2013-01-13 12:52:00,
2013-01-13 05:02:00,28.0,12.0,-100.00,SE,139,2.0,9.0,51,-99.99,,,-99.99,,2013-01-13 13:02:00,
2013-01-13 05:12:00,28.0,12.0,-100.00,ESE,117,3.0,7.0,51,-99.99,,,-99.99,,2013-01-13 13:12:00,
2013-01-13 05:22:00,29.0,14.0,-100.00,ESE,106,1.0,5.0,52,-99.99,,,-99.99,,2013-01-13 13:22:00,
2013-01-13 05:32:00,27.0,12.0,-100.00,NW,316,4.0,6.0,53,-99.99,,,-99.99,,2013-01-13 13:32:00,
2013-01-13 05:42:00,27.0,12.0,-100.00,NW,316,4.0,6.0,53,-99.99,,,-99.99,,2013-01-13 13:42:00,
2013-01-13 05:53:00,26.0,12.0,-100.00,NNW,340,3.0,5.0,55,-99.99,,,-99.99,,2013-01-13 13:53:00,
2013-01-13 06:02:00,27.0,13.0,-100.00,NNW,342,3.0,5.0,54,-99.99,,,-99.99,,2013-01-13 14:02:00,
2013-01-13 06:12:00,28.0,13.0,-100.00,SSW,213,2.0,5.0,53,-99.99,,,-99.99,,2013-01-13 14:12:00,
2013-01-13 06:22:00,28.0,14.0,-100.00,West,270,1.0,3.0,54,-99.99,,,-99.99,,2013-01-13 14:22:00,
2013-01-13 06:32:00,29.0,14.0,-100.00,South,191,2.0,7.0,54,-99.99,,,-99.99,,2013-01-13 14:32:00,
2013-01-13 06:42:00,29.0,15.0,-100.00,East,90,3.0,8.0,56,-99.99,,,-99.99,,2013-01-13 14:42:00,
2013-01-13 06:52:00,29.0,15.0,-100.00,East,97,3.0,7.0,56,-99.99,,,-99.99,,2013-01-13 14:52:00,
2013-01-13 07:02:00,29.0,15.0,-100.00,NNE,18,4.0,9.0,56,-99.99,,,-99.99,,2013-01-13 15:02:00,
2013-01-13 07:12:00,27.0,14.0,-100.00,North,350,3.0,5.0,58,-99.99,,,-99.99,,2013-01-13 15:12:00,
2013-01-13 07:22:00,28.0,15.0,-100.00,NW,318,2.0,3.0,57,-99.99,,,-99.99,,2013-01-13 15:22:00,
2013-01-13 07:33:00,27.0,15.0,-100.00,WSW,243,2.0,7.0,59,-99.99,,,-99.99,,2013-01-13 15:33:00,
2013-01-13 07:42:00,28.0,14.0,-100.00,South,177,2.0,6.0,55,-99.99,,,-99.99,,2013-01-13 15:42:00,
2013-01-13 07:52:00,28.0,14.0,-100.00,NE,46,2.0,6.0,54,-99.99,,,-99.99,,2013-01-13 15:52:00,
2013-01-13 08:03:00,28.0,14.0,-100.00,WNW,303,2.0,4.0,56,-99.99,,,-99.99,,2013-01-13 16:03:00,
2013-01-13 08:12:00,29.0,14.0,-100.00,ESE,104,2.0,7.0,53,-99.99,,,-99.99,,2013-01-13 16:12:00,
2013-01-13 08:22:00,31.0,14.0,-100.00,SE,138,2.0,5.0,48,-99.99,,,-99.99,,2013-01-13 16:22:00,
2013-01-13 08:33:00,32.0,13.0,-100.00,SSW,210,2.0,6.0,44,-99.99,,,-99.99,,2013-01-13 16:33:00,
2013-01-13 08:42:00,33.0,12.0,-100.00,SE,138,1.0,5.0,42,-99.99,,,-99.99,,2013-01-13 16:42:00,
2013-01-13 08:52:00,33.0,10.0,-100.00,ESE,115,4.0,11.0,38,-99.99,,,-99.99,,2013-01-13 16:52:00,
2013-01-13 09:02:00,33.0,10.0,-100.00,ESE,118,5.0,10.0,38,-99.99,,,-99.99,,2013-01-13 17:02:00,
2013-01-13 09:12:00,34.0,11.0,-100.00,ESE,110,6.0,12.0,38,-99.99,,,-99.99,,2013-01-13 17:12:00,
2013-01-13 09:22:00,34.0,10.0,-100.00,ESE,110,6.0,12.0,36,-99.99,,,-99.99,,2013-01-13 17:22:00,
2013-01-13 09:32:00,35.0,11.0,-100.00,ESE,112,6.0,11.0,36,-99.99,,,-99.99,,2013-01-13 17:32:00,
2013-01-13 09:42:00,36.0,10.0,-100.00,SE,131,6.0,11.0,34,-99.99,,,-99.99,,2013-01-13 17:42:00,
2013-01-13 09:52:00,36.0,10.0,-100.00,SE,124,5.0,11.0,33,-99.99,,,-99.99,,2013-01-13 17:52:00,
2013-01-13 10:02:00,36.0,10.0,-100.00,ESE,109,5.0,11.0,33,-99.99,,,-99.99,,2013-01-13 18:02:00,
2013-01-13 10:12:00,36.0,9.0,-100.00,SE,139,6.0,12.0,32,-99.99,,,-99.99,,2013-01-13 18:12:00,
2013-01-13 10:22:00,37.0,10.0,-100.00,SE,146,7.0,13.0,32,-99.99,,,-99.99,,2013-01-13 18:22:00,
2013-01-13 10:32:00,37.0,10.0,-100.00,SE,134,7.0,14.0,32,-99.99,,,-99.99,,2013-01-13 18:32:00,
2013-01-13 10:42:00,36.0,9.0,-100.00,SSE,150,7.0,13.0,32,-99.99,,,-99.99,,2013-01-13 18:42:00,
2013-01-13 10:53:00,37.0,11.0,-100.00,SSE,154,9.0,16.0,34,-99.99,,,-99.99,,2013-01-13 18:53:00,
2013-01-13 11:02:00,37.0,13.0,-100.00,SSE,158,8.0,13.0,36,-99.99,,,-99.99,,2013-01-13 19:02:00,
2013-01-13 11:12:00,37.0,13.0,-100.00,SSE,157,8.0,14.0,36,-99.99,,,-99.99,,2013-01-13 19:12:00,
2013-01-13 11:22:00,36.0,12.0,-100.00,SE,141,9.0,16.0,37,-99.99,,,-99.99,,2013-01-13 19:22:00,
2013-01-13 11:32:00,37.0,13.0,-100.00,SSE,152,7.0,15.0,36,-99.99,,,-99.99,,2013-01-13 19:32:00,
2013-01-13 11:42:00,37.0,13.0,-100.00,SE,142,7.0,14.0,37,-99.99,,,-99.99,,2013-01-13 19:42:00,
2013-01-13 11:52:00,37.0,12.0,-100.00,SSE,148,7.0,14.0,35,-99.99,,,-99.99,,2013-01-13 19:52:00,
2013-01-13 12:02:00,37.0,11.0,-100.00,SE,137,6.0,12.0,34,-99.99,,,-99.99,,2013-01-13 20:02:00,
2013-01-13 12:12:00,38.0,11.0,-100.00,SE,145,6.0,10.0,33,-99.99,,,-99.99,,2013-01-13 20:12:00,
2013-01-13 12:22:00,38.0,11.0,-100.00,SE,142,6.0,11.0,33,-99.99,,,-99.99,,2013-01-13 20:22:00,
2013-01-13 12:32:00,38.0,11.0,-100.00,SSE,158,6.0,11.0,32,-99.99,,,-99.99,,2013-01-13 20:32:00,
2013-01-13 12:43:00,38.0,11.0,-100.00,SSE,152,6.0,11.0,32,-99.99,,,-99.99,,2013-01-13 20:43:00,
2013-01-13 12:52:00,38.0,11.0,-100.00,SE,130,6.0,11.0,32,-99.99,,,-99.99,,2013-01-13 20:52:00,
2013-01-13 13:02:00,38.0,11.0,-100.00,SSE,147,6.0,10.0,32,-99.99,,,-99.99,,2013-01-13 21:02:00,
2013-01-13 13:12:00,38.0,11.0,-100.00,ESE,119,6.0,10.0,32,-99.99,,,-99.99,,2013-01-13 21:12:00,
2013-01-13 13:22:00,38.0,11.0,-100.00,SE,143,6.0,14.0,32,-99.99,,,-99.99,,2013-01-13 21:22:00,
2013-01-13 13:32:00,39.0,11.0,-100.00,SSE,147,6.0,11.0,31,-99.99,,,-99.99,,2013-01-13 21:32:00,
2013-01-13 13:42:00,39.0,11.0,-100.00,SE,132,7.0,13.0,31,-99.99,,,-99.99,,2013-01-13 21:42:00,
2013-01-13 13:52:00,40.0,12.0,-100.00,SE,134,5.0,10.0,31,-99.99,,,-99.99,,2013-01-13 21:52:00,
2013-01-13 14:02:00,40.0,11.0,-100.00,SE,130,3.0,7.0,30,-99.99,,,-99.99,,2013-01-13 22:02:00,
2013-01-13 14:12:00,41.0,11.0,-100.00,SSW,202,5.0,14.0,29,-99.99,,,-99.99,,2013-01-13 22:12:00,
2013-01-13 14:22:00,40.0,11.0,-100.00,West,262,5.0,16.0,30,-99.99,,,-99.99,,2013-01-13 22:22:00,
2013-01-13 14:33:00,41.0,11.0,-100.00,ESE,106,2.0,4.0,29,-99.99,,,-99.99,,2013-01-13 22:33:00,
2013-01-13 14:42:00,41.0,11.0,-100.00,ESE,106,2.0,4.0,29,-99.99,,,-99.99,,2013-01-13 22:42:00,
2013-01-13 14:52:00,41.0,12.0,-100.00,West,259,5.0,9.0,30,-99.99,,,-99.99,,2013-01-13 22:52:00,
2013-01-13 15:02:00,40.0,11.0,-100.00,WNW,287,6.0,13.0,30,-99.99,,,-99.99,,2013-01-13 23:02:00,
2013-01-13 15:12:00,40.0,10.0,-100.00,West,264,5.0,10.0,29,-99.99,,,-99.99,,2013-01-13 23:12:00,
2013-01-13 15:22:00,40.0,10.0,-100.00,SW,235,4.0,9.0,29,-99.99,,,-99.99,,2013-01-13 23:22:00,
2013-01-13 15:32:00,41.0,12.0,-100.00,SW,224,4.0,11.0,30,-99.99,,,-99.99,,2013-01-13 23:32:00,
2013-01-13 15:42:00,39.0,12.0,-100.00,WSW,251,6.0,10.0,33,-99.99,,,-99.99,,2013-01-13 23:42:00,
2013-01-13 15:52:00,39.0,14.0,-100.00,West,275,5.0,10.0,36,-99.99,,,-99.99,,2013-01-13 23:52:00,
2013-01-13 16:02:00,38.0,16.0,-100.00,West,261,7.0,14.0,40,-99.99,,,-99.99,,2013-01-14 00:02:00,
2013-01-13 16:12:00,37.0,17.0,-100.00,WSW,249,7.0,13.0,44,-99.99,,,-99.99,,2013-01-14 00:12:00,
2013-01-13 16:22:00,37.0,18.0,-100.00,WSW,245,8.0,13.0,45,-99.99,,,-99.99,,2013-01-14 00:22:00,
2013-01-13 16:32:00,37.0,19.0,-100.00,WSW,257,6.0,10.0,48,-99.99,,,-99.99,,2013-01-14 00:32:00,
2013-01-13 16:42:00,36.0,20.0,-100.00,West,276,6.0,12.0,52,-99.99,,,-99.99,,2013-01-14 00:42:00,
2013-01-13 16:52:00,35.0,21.0,-100.00,West,269,8.0,16.0,57,-99.99,,,-99.99,,2013-01-14 00:52:00,
2013-01-13 17:02:00,35.0,22.0,-100.00,WNW,285,7.0,13.0,58,-99.99,,,-99.99,,2013-01-14 01:02:00,
2013-01-13 17:12:00,35.0,23.0,-100.00,WNW,283,6.0,12.0,60,-99.99,,,-99.99,,2013-01-14 01:12:00,
2013-01-13 17:22:00,34.0,22.0,-100.00,WNW,282,5.0,10.0,61,-99.99,,,-99.99,,2013-01-14 01:22:00,
2013-01-13 17:32:00,33.0,22.0,-100.00,West,277,5.0,10.0,63,-99.99,,,-99.99,,2013-01-14 01:32:00,
2013-01-13 17:42:00,33.0,22.0,-100.00,West,279,4.0,8.0,64,-99.99,,,-99.99,,2013-01-14 01:42:00,
2013-01-13 17:52:00,32.0,22.0,-100.00,West,273,4.0,7.0,66,-99.99,,,-99.99,,2013-01-14 01:52:00,
2013-01-13 18:02:00,32.0,22.0,-100.00,WSW,255,4.0,8.0,67,-99.99,,,-99.99,,2013-01-14 02:02:00,
2013-01-13 18:12:00,32.0,23.0,-100.00,WSW,254,4.0,7.0,68,-99.99,,,-99.99,,2013-01-14 02:12:00,
2013-01-13 18:22:00,31.0,22.0,-100.00,West,265,4.0,7.0,70,-99.99,,,-99.99,,2013-01-14 02:22:00,
2013-01-13 18:32:00,31.0,23.0,-100.00,West,275,3.0,5.0,71,-99.99,,,-99.99,,2013-01-14 02:32:00,
2013-01-13 18:42:00,31.0,23.0,-100.00,WNW,289,4.0,6.0,72,-99.99,,,-99.99,,2013-01-14 02:42:00,
2013-01-13 18:53:00,30.0,22.0,-100.00,WNW,300,3.0,5.0,73,-99.99,,,-99.99,,2013-01-14 02:53:00,
2013-01-13 19:02:00,30.0,22.0,-100.00,WNW,289,3.0,4.0,73,-99.99,,,-99.99,,2013-01-14 03:02:00,
2013-01-13 19:12:00,30.0,23.0,-100.00,WNW,286,3.0,4.0,74,-99.99,,,-99.99,,2013-01-14 03:12:00,
2013-01-13 19:22:00,30.0,23.0,-100.00,WNW,298,3.0,5.0,74,-99.99,,,-99.99,,2013-01-14 03:22:00,
2013-01-13 19:32:00,29.0,22.0,-100.00,WNW,293,4.0,5.0,74,-99.99,,,-99.99,,2013-01-14 03:32:00,
2013-01-13 19:42:00,29.0,22.0,-100.00,WNW,302,3.0,5.0,74,-99.99,,,-99.99,,2013-01-14 03:42:00,
2013-01-13 19:52:00,29.0,22.0,-100.00,WNW,285,2.0,4.0,76,-99.99,,,-99.99,,2013-01-14 03:52:00,
2013-01-13 20:02:00,28.0,22.0,-100.00,WNW,296,3.0,4.0,77,-99.99,,,-99.99,,2013-01-14 04:02:00,
2013-01-13 20:12:00,28.0,22.0,-100.00,WNW,298,3.0,4.0,77,-99.99,,,-99.99,,2013-01-14 04:12:00,
2013-01-13 20:22:00,28.0,22.0,-100.00,WNW,288,4.0,5.0,78,-99.99,,,-99.99,,2013-01-14 04:22:00,
2013-01-13 20:32:00,29.0,22.0,-100.00,NW,306,4.0,5.0,76,-99.99,,,-99.99,,2013-01-14 04:32:00,
2013-01-13 20:42:00,28.0,22.0,-100.00,WNW,300,4.0,5.0,77,-99.99,,,-99.99,,2013-01-14 04:42:00,
2013-01-13 20:52:00,28.0,22.0,-100.00,NW,304,3.0,5.0,78,-99.99,,,-99.99,,2013-01-14 04:52:00,
2013-01-13 21:03:00,29.0,23.0,-100.00,NW,322,2.0,3.0,77,-99.99,,,-99.99,,2013-01-14 05:03:00,
2013-01-13 21:12:00,29.0,22.0,-100.00,NW,311,3.0,4.0,76,-99.99,,,-99.99,,2013-01-14 05:12:00,
2013-01-13 21:22:00,29.0,22.0,-100.00,WNW,298,3.0,4.0,75,-99.99,,,-99.99,,2013-01-14 05:22:00,
2013-01-13 21:32:00,29.0,22.0,-100.00,NW,325,3.0,4.0,74,-99.99,,,-99.99,,2013-01-14 05:32:00,
2013-01-13 21:42:00,29.0,22.0,-100.00,NNW,342,3.0,4.0,74,-99.99,,,-99.99,,2013-01-14 05:42:00,
2013-01-13 21:52:00,28.0,21.0,-100.00,NW,321,3.0,4.0,76,-99.99,,,-99.99,,2013-01-14 05:52:00,
2013-01-13 22:02:00,28.0,22.0,-100.00,NNW,341,3.0,4.0,78,-99.99,,,-99.99,,2013-01-14 06:02:00,
2013-01-13 22:12:00,28.0,22.0,-100.00,NW,314,3.0,5.0,78,-99.99,,,-99.99,,2013-01-14 06:12:00,
2013-01-13 22:22:00,28.0,22.0,-100.00,NW,307,4.0,5.0,78,-99.99,,,-99.99,,2013-01-14 06:22:00,
2013-01-13 22:32:00,28.0,21.0,-100.00,WNW,291,3.0,6.0,75,-99.99,,,-99.99,,2013-01-14 06:32:00,
2013-01-13 22:42:00,28.0,20.0,-100.00,WNW,299,4.0,7.0,73,-99.99,,,-99.99,,2013-01-14 06:42:00,
2013-01-13 22:52:00,29.0,19.0,-100.00,WNW,290,5.0,7.0,67,-99.99,,,-99.99,,2013-01-14 06:52:00,
2013-01-13 23:02:00,28.0,17.0,-100.00,West,276,5.0,8.0,64,-99.99,,,-99.99,,2013-01-14 07:02:00,
2013-01-13 23:12:00,29.0,14.0,-100.00,West,269,4.0,7.0,53,-99.99,,,-99.99,,2013-01-14 07:12:00,
2013-01-13 23:22:00,29.0,12.0,-100.00,WNW,291,2.0,4.0,48,-99.99,,,-99.99,,2013-01-14 07:22:00,
2013-01-13 23:32:00,30.0,11.0,-100.00,North,8,2.0,6.0,45,-99.99,,,-99.99,,2013-01-14 07:32:00,
2013-01-13 23:42:00,30.0,11.0,-100.00,North,8,2.0,6.0,45,-99.99,,,-99.99,,2013-01-14 07:42:00,
2013-01-13 23:52:00,29.0,11.0,-100.00,SW,220,2.0,4.0,46,-99.99,,,-99.99,,2013-01-14 07:52:00,